,,Stat6,,Stat2,,Stat8,,Stat9,,Stat10,,Wind1,,Wind1,
time,status,PA1M_AVG,status,PR1M_SUM,status,RH1M_AVG,status,SR1M_AVG,status,TA1M_AVG,status,W1dAve1m,status,W1sAve1m,
2008-09-17, 00:00:00,VALID,919.282,VALID,0,VALID,100,VALID,-0.0509425,VALID,19.3294,VALID,163,VALID,0.74349,
2008-09-17, 00:01:00,VALID,919.258,VALID,0,VALID,100,VALID,-0.0679233,VALID,19.3394,VALID,156,VALID,0.923209,
2008-09-17, 00:02:00,VALID,919.242,VALID,0,VALID,100,VALID,-0.0679233,VALID,19.3459,VALID,152,VALID,0.577744,
2008-09-17, 00:03:00,VALID,919.227,VALID,0,VALID,100,VALID,-0.0679233,VALID,19.3427,VALID,153,VALID,0.504542,
2008-09-17, 00:04:00,VALID,919.222,VALID,0,VALID,100,VALID,-0.0169808,VALID,19.3362,VALID,152,VALID,0,
2008-09-17, 00:05:00,VALID,919.216,VALID,0,VALID,100,VALID,-0.0339617,VALID,19.3329,VALID,153,VALID,0.570313,
2008-09-17, 00:06:00,VALID,919.195,VALID,0,VALID,100,VALID,-0.0339617,VALID,19.3397,VALID,151,VALID,0.666667,
2008-09-17, 00:07:00,VALID,919.186,VALID,0,VALID,100,VALID,-0.0509425,VALID,19.3299,VALID,157,VALID,0.505022,
2008-09-17, 00:08:00,VALID,919.168,VALID,0,VALID,100,VALID,-0.0849042,VALID,19.3374,VALID,146,VALID,0.0901296,
2008-09-17, 00:09:00,VALID,919.167,VALID,0,VALID,100,VALID,-0.0849042,VALID,19.3267,VALID,149,VALID,0.472202,
2008-09-17, 00:10:00,VALID,919.165,VALID,0,VALID,100,VALID,-0.0849042,VALID,19.3137,VALID,154,VALID,0.0646802,
2008-09-17, 00:11:00,VALID,919.158,VALID,0,VALID,100,VALID,-0.0509425,VALID,19.317,VALID,140,VALID,0.188542,
2008-09-17, 00:12:00,VALID,919.159,VALID,0,VALID,100,VALID,-0.0169808,VALID,19.3234,VALID,151,VALID,0.131641,
2008-09-17, 00:13:00,VALID,919.141,VALID,0,VALID,100,VALID,-0.0849042,VALID,19.3302,VALID,153,VALID,1.06083,
2008-09-17, 00:14:00,VALID,919.138,VALID,0,VALID,100,VALID,-0.0679233,VALID,19.3399,VALID,154,VALID,0.364644,
2008-09-17, 00:15:00,VALID,919.134,VALID,0,VALID,100,VALID,-0.0509425,VALID,19.3529,VALID,157,VALID,0.645508,
2008-09-17, 00:16:00,VALID,919.111,VALID,0,VALID,100,VALID,-0.0509425,VALID,19.3686,VALID,142,VALID,0.710756,
2008-09-17, 00:17:00,VALID,919.082,VALID,0,VALID,100,VALID,-0.0679233,VALID,19.3853,VALID,143,VALID,0.741122,
2008-09-17, 00:18:00,VALID,919.065,VALID,0,VALID,100,VALID,-0.0679233,VALID,19.3784,VALID,154,VALID,0.563045,
2008-09-17, 00:19:00,VALID,919.028,VALID,0,VALID,100,VALID,-0.0679233,VALID,19.3851,VALID,137,VALID,0.843936,
2008-09-17, 00:20:00,VALID,919.012,VALID,0,VALID,100,VALID,-0.0679233,VALID,19.3913,VALID,148,VALID,0.00111607,
2008-09-17, 00:21:00,VALID,918.992,VALID,0,VALID,100,VALID,-0.0509425,VALID,19.3881,VALID,152,VALID,0.00106534,
2008-09-17, 00:22:00,VALID,918.981,VALID,0,VALID,100,VALID,-0.0679233,VALID,19.3946,VALID,157,VALID,0.3125,
2008-09-17, 00:23:00,VALID,918.986,VALID,0,VALID,100,VALID,-0.0679233,VALID,19.411,VALID,154,VALID,0,
2008-09-17, 00:24:00,VALID,918.977,VALID,0,VALID,100,VALID,-0.0339617,VALID,19.4013,VALID,146,VALID,0,
2008-09-17, 00:25:00,VALID,918.977,VALID,0,VALID,100,VALID,0,VALID,19.3981,VALID,138,VALID,0,
2008-09-17, 00:26:00,VALID,918.977,VALID,0,VALID,100,VALID,-0.0169808,VALID,19.3654,VALID,130,VALID,0.144804,
2008-09-17, 00:27:00,VALID,918.965,VALID,0,VALID,100,VALID,-0.0339617,VALID,19.3524,VALID,123,VALID,0.0344122,
2008-09-17, 00:28:00,VALID,918.98,VALID,0,VALID,100,VALID,-0.0679233,VALID,19.3434,VALID,124,VALID,0.415334,
2008-09-17, 00:29:00,VALID,918.965,VALID,0,VALID,100,VALID,-0.0849042,VALID,19.317,VALID,120,VALID,0.0474466,
2008-09-17, 00:30:00,VALID,918.939,VALID,0,VALID,100,VALID,-0.0679233,VALID,19.3077,VALID,108,VALID,0.27397,
2008-09-17, 00:31:00,VALID,918.914,VALID,0,VALID,100,VALID,-0.0509425,VALID,19.278,VALID,102,VALID,0.139606,
2008-09-17, 00:32:00,VALID,918.895,VALID,0,VALID,100,VALID,-0.0509425,VALID,19.2518,VALID,97,VALID,0,
2008-09-17, 00:33:00,VALID,918.867,VALID,0,VALID,100,VALID,-0.0849042,VALID,19.2426,VALID,96,VALID,0,
2008-09-17, 00:34:00,VALID,918.838,VALID,0,VALID,100,VALID,-0.101885,VALID,19.2229,VALID,96,VALID,0,
2008-09-17, 00:35:00,VALID,918.826,VALID,0,VALID,100,VALID,-0.0849042,VALID,19.2099,VALID,96,VALID,0,
2008-09-17, 00:36:00,VALID,918.805,VALID,0,VALID,100,VALID,-0.0339617,VALID,19.2004,VALID,96,VALID,0,
2008-09-17, 00:37:00,VALID,918.789,VALID,0,VALID,100,VALID,-0.0509425,VALID,19.2039,VALID,96,VALID,0,
2008-09-17, 00:38:00,VALID,918.774,VALID,0,VALID,100,VALID,-0.0849042,VALID,19.1837,VALID,99,VALID,0,
2008-09-17, 00:39:00,VALID,918.764,VALID,0,VALID,100,VALID,-0.0679233,VALID,19.1837,VALID,124,VALID,0,
2008-09-17, 00:40:00,VALID,918.751,VALID,0,VALID,100,VALID,-0.0509425,VALID,19.1672,VALID,100,VALID,0,
2008-09-17, 00:41:00,VALID,918.738,VALID,0,VALID,100,VALID,-0.0849042,VALID,19.1515,VALID,116,VALID,0.224657,
2008-09-17, 00:42:00,VALID,918.744,VALID,0,VALID,100,VALID,-0.0679233,VALID,19.1348,VALID,124,VALID,0,
2008-09-17, 00:43:00,VALID,918.742,VALID,0,VALID,100,VALID,-0.0509425,VALID,19.1448,VALID,82,VALID,0.00109012,
2008-09-17, 00:44:00,VALID,918.762,VALID,0,VALID,100,VALID,-0.0679233,VALID,19.1478,VALID,96,VALID,0.0634084,
2008-09-17, 00:45:00,VALID,918.774,VALID,0,VALID,100,VALID,-0.0339617,VALID,19.1513,VALID,96,VALID,0.235491,
2008-09-17, 00:46:00,VALID,918.776,VALID,0,VALID,100,VALID,0,VALID,19.1285,VALID,82,VALID,0.411111,
2008-09-17, 00:47:00,VALID,918.769,VALID,0,VALID,100,VALID,-0.0679233,VALID,19.0961,VALID,72,VALID,0,
2008-09-17, 00:48:00,VALID,918.762,VALID,0,VALID,100,VALID,-0.0509425,VALID,19.0639,VALID,76,VALID,0.454719,
2008-09-17, 00:49:00,VALID,918.748,VALID,0,VALID,100,VALID,-0.0509425,VALID,19.0217,VALID,89,VALID,0.356445,
2008-09-17, 00:50:00,VALID,918.733,VALID,0,VALID,100,VALID,-0.0679233,VALID,19.006,VALID,105,VALID,0,
2008-09-17, 00:51:00,VALID,918.707,VALID,0,VALID,100,VALID,-0.0509425,VALID,18.9768,VALID,87,VALID,0,
2008-09-17, 00:52:00,VALID,918.682,VALID,0,VALID,100,VALID,-0.101885,VALID,18.9641,VALID,100,VALID,0,
2008-09-17, 00:53:00,VALID,918.655,VALID,0,VALID,100,VALID,-0.0849042,VALID,18.9446,VALID,110,VALID,0,
2008-09-17, 00:54:00,VALID,918.631,VALID,0,VALID,100,VALID,-0.101885,VALID,18.9179,VALID,109,VALID,0,
2008-09-17, 00:55:00,VALID,918.593,VALID,0,VALID,100,VALID,-0.0849042,VALID,18.902,VALID,118,VALID,0,
2008-09-17, 00:56:00,VALID,918.568,VALID,0,VALID,100,VALID,-0.101885,VALID,18.8957,VALID,114,VALID,0,
2008-09-17, 00:57:00,VALID,918.537,VALID,0,VALID,100,VALID,-0.101885,VALID,18.8955,VALID,137,VALID,0,
2008-09-17, 00:58:00,VALID,918.507,VALID,0,VALID,100,VALID,-0.0679233,VALID,18.8887,VALID,132,VALID,0.0606399,
2008-09-17, 00:59:00,VALID,918.479,VALID,0,VALID,100,VALID,-0.0339617,VALID,18.885,VALID,136,VALID,0,
2008-09-17, 01:00:00,VALID,918.469,VALID,0,VALID,100,VALID,-0.0679233,VALID,18.9022,VALID,138,VALID,1.12035,
2008-09-17, 01:01:00,VALID,918.449,VALID,0,VALID,100,VALID,-0.0509425,VALID,18.9149,VALID,143,VALID,1.61347,
2008-09-17, 01:02:00,VALID,918.424,VALID,0,VALID,100,VALID,-0.0679233,VALID,18.9307,VALID,138,VALID,1.54119,
2008-09-17, 01:03:00,VALID,918.425,VALID,0,VALID,100,VALID,-0.0339617,VALID,18.9469,VALID,140,VALID,1.45465,
2008-09-17, 01:04:00,VALID,918.417,VALID,0,VALID,100,VALID,-0.0339617,VALID,18.9694,VALID,139,VALID,1.51858,
2008-09-17, 01:05:00,VALID,918.404,VALID,0,VALID,100,VALID,0,VALID,18.9793,VALID,134,VALID,0.680959,
2008-09-17, 01:06:00,VALID,918.402,VALID,0,VALID,100,VALID,-0.0339617,VALID,18.9953,VALID,105,VALID,0.931784,
2008-09-17, 01:07:00,VALID,918.395,VALID,0,VALID,100,VALID,-0.0509425,VALID,18.9988,VALID,87,VALID,0.730015,
2008-09-17, 01:08:00,VALID,918.381,VALID,0,VALID,100,VALID,-0.0339617,VALID,18.9925,VALID,75,VALID,0.741477,
2008-09-17, 01:09:00,VALID,918.377,VALID,0,VALID,100,VALID,-0.0339617,VALID,18.9726,VALID,72,VALID,0.851376,
2008-09-17, 01:10:00,VALID,918.371,VALID,0,VALID,100,VALID,-0.0339617,VALID,18.9726,VALID,57,VALID,1.05283,
2008-09-17, 01:11:00,VALID,918.369,VALID,0,VALID,100,VALID,-0.0339617,VALID,18.9629,VALID,59,VALID,0.970246,
2008-09-17, 01:12:00,VALID,918.368,VALID,0,VALID,100,VALID,-0.0509425,VALID,18.9501,VALID,54,VALID,0.631541,
2008-09-17, 01:13:00,VALID,918.365,VALID,0,VALID,100,VALID,-0.0339617,VALID,18.9339,VALID,57,VALID,0.400112,
2008-09-17, 01:14:00,VALID,918.369,VALID,0,VALID,100,VALID,-0.0849042,VALID,18.9144,VALID,63,VALID,0.428925,
2008-09-17, 01:15:00,VALID,918.362,VALID,0,VALID,100,VALID,-0.0679233,VALID,18.895,VALID,63,VALID,0,
2008-09-17, 01:16:00,VALID,918.362,VALID,0,VALID,100,VALID,-0.0509425,VALID,18.875,VALID,63,VALID,0,
2008-09-17, 01:17:00,VALID,918.365,VALID,0,VALID,100,VALID,-0.0339617,VALID,18.8688,VALID,63,VALID,0,
2008-09-17, 01:18:00,VALID,918.372,VALID,0,VALID,100,VALID,-0.0339617,VALID,18.8755,VALID,63,VALID,0,
2008-09-17, 01:19:00,VALID,918.357,VALID,0,VALID,100,VALID,-0.0339617,VALID,18.8493,VALID,83,VALID,0,
2008-09-17, 01:20:00,VALID,918.347,VALID,0,VALID,100,VALID,-0.0169808,VALID,18.8463,VALID,91,VALID,0,
2008-09-17, 01:21:00,VALID,918.338,VALID,0,VALID,100,VALID,-0.0169808,VALID,18.8331,VALID,91,VALID,0,
2008-09-17, 01:22:00,VALID,918.328,VALID,0,VALID,100,VALID,-0.0169808,VALID,18.8266,VALID,91,VALID,0,
2008-09-17, 01:23:00,VALID,918.316,VALID,0,VALID,100,VALID,-0.0679233,VALID,18.8104,VALID,91,VALID,0,
2008-09-17, 01:24:00,VALID,918.293,VALID,0,VALID,100,VALID,-0.101885,VALID,18.8007,VALID,91,VALID,0,
2008-09-17, 01:25:00,VALID,918.283,VALID,0,VALID,100,VALID,-0.0849042,VALID,18.8007,VALID,91,VALID,0,
2008-09-17, 01:26:00,VALID,918.256,VALID,0,VALID,100,VALID,-0.0509425,VALID,18.8007,VALID,114,VALID,0,
2008-09-17, 01:27:00,VALID,918.25,VALID,0,VALID,100,VALID,-0.0509425,VALID,18.7944,VALID,121,VALID,0,
2008-09-17, 01:28:00,VALID,918.237,VALID,0,VALID,100,VALID,-0.0339617,VALID,18.7909,VALID,127,VALID,0,
2008-09-17, 01:29:00,VALID,918.231,VALID,0,VALID,100,VALID,-0.0169808,VALID,18.8002,VALID,139,VALID,0,
2008-09-17, 01:30:00,VALID,918.212,VALID,0,VALID,100,VALID,-0.0509425,VALID,18.8266,VALID,145,VALID,0,
2008-09-17, 01:31:00,VALID,918.21,VALID,0,VALID,100,VALID,-0.0169808,VALID,18.8396,VALID,145,VALID,0,
2008-09-17, 01:32:00,VALID,918.206,VALID,0,VALID,100,VALID,-0.0509425,VALID,18.8591,VALID,144,VALID,0,
2008-09-17, 01:33:00,VALID,918.208,VALID,0,VALID,100,VALID,-0.0339617,VALID,18.8753,VALID,148,VALID,0,
2008-09-17, 01:34:00,VALID,918.208,VALID,0,VALID,100,VALID,-0.0339617,VALID,18.8783,VALID,140,VALID,0.129092,
2008-09-17, 01:35:00,VALID,918.211,VALID,0,VALID,100,VALID,-0.0679233,VALID,18.885,VALID,147,VALID,0,
2008-09-17, 01:36:00,VALID,918.204,VALID,0,VALID,100,VALID,-0.0339617,VALID,18.8815,VALID,147,VALID,0,
2008-09-17, 01:37:00,VALID,918.224,VALID,0,VALID,100,VALID,-0.0169808,VALID,18.898,VALID,147,VALID,0,
2008-09-17, 01:38:00,VALID,918.214,VALID,0,VALID,100,VALID,-0.0509425,VALID,18.9077,VALID,147,VALID,0,
2008-09-17, 01:39:00,VALID,918.216,VALID,0,VALID,100,VALID,-0.0509425,VALID,18.9212,VALID,147,VALID,0.0431641,
2008-09-17, 01:40:00,VALID,918.21,VALID,0,VALID,100,VALID,-0.0169808,VALID,18.9205,VALID,148,VALID,0,
2008-09-17, 01:41:00,VALID,918.201,VALID,0,VALID,100,VALID,0,VALID,18.9239,VALID,148,VALID,0,
2008-09-17, 01:42:00,VALID,918.193,VALID,0,VALID,100,VALID,-0.0849042,VALID,18.9205,VALID,150,VALID,0.00111607,
2008-09-17, 01:43:00,VALID,918.187,VALID,0,VALID,100,VALID,-0.0849042,VALID,18.9177,VALID,151,VALID,0.271484,
2008-09-17, 01:44:00,VALID,918.183,VALID,0,VALID,100,VALID,-0.0679233,VALID,18.9112,VALID,151,VALID,0,
2008-09-17, 01:45:00,VALID,918.176,VALID,0,VALID,100,VALID,-0.0679233,VALID,18.9047,VALID,153,VALID,0,
2008-09-17, 01:46:00,VALID,918.175,VALID,0,VALID,100,VALID,-0.0679233,VALID,18.8915,VALID,151,VALID,0,
2008-09-17, 01:47:00,VALID,918.174,VALID,0,VALID,100,VALID,-0.0169808,VALID,18.8815,VALID,157,VALID,0,
2008-09-17, 01:48:00,VALID,918.188,VALID,0,VALID,100,VALID,-0.0509425,VALID,18.885,VALID,157,VALID,0,
2008-09-17, 01:49:00,VALID,918.188,VALID,0,VALID,100,VALID,0,VALID,18.8688,VALID,155,VALID,0,
2008-09-17, 01:50:00,VALID,918.191,VALID,0,VALID,100,VALID,-0.0169808,VALID,18.8591,VALID,155,VALID,0,
2008-09-17, 01:51:00,VALID,918.187,VALID,0,VALID,100,VALID,-0.0169808,VALID,18.8526,VALID,156,VALID,0,
2008-09-17, 01:52:00,VALID,918.186,VALID,0,VALID,100,VALID,-0.0339617,VALID,18.8394,VALID,153,VALID,0,
2008-09-17, 01:53:00,VALID,918.197,VALID,0,VALID,100,VALID,-0.0679233,VALID,18.8266,VALID,150,VALID,0,
2008-09-17, 01:54:00,VALID,918.192,VALID,0,VALID,100,VALID,-0.0339617,VALID,18.8104,VALID,142,VALID,0,
2008-09-17, 01:55:00,VALID,918.198,VALID,0,VALID,100,VALID,-0.0169808,VALID,18.8007,VALID,125,VALID,0,
2008-09-17, 01:56:00,VALID,918.192,VALID,0,VALID,100,VALID,-0.0339617,VALID,18.7907,VALID,113,VALID,0,
2008-09-17, 01:57:00,VALID,918.194,VALID,0,VALID,100,VALID,-0.0339617,VALID,18.7842,VALID,114,VALID,0,
2008-09-17, 01:58:00,VALID,918.19,VALID,0,VALID,100,VALID,-0.0509425,VALID,18.7615,VALID,134,VALID,0,
2008-09-17, 01:59:00,VALID,918.192,VALID,0,VALID,100,VALID,-0.0339617,VALID,18.7453,VALID,142,VALID,0,
2008-09-17, 02:00:00,VALID,918.182,VALID,0,VALID,100,VALID,-0.0169808,VALID,18.7421,VALID,144,VALID,0,
2008-09-17, 02:01:00,VALID,918.183,VALID,0,VALID,100,VALID,-0.0679233,VALID,18.752,VALID,141,VALID,0,
2008-09-17, 02:02:00,VALID,918.179,VALID,0,VALID,100,VALID,-0.0169808,VALID,18.7513,VALID,141,VALID,0,
2008-09-17, 02:03:00,VALID,918.182,VALID,0,VALID,100,VALID,-0.0509425,VALID,18.7453,VALID,142,VALID,0,
2008-09-17, 02:04:00,VALID,918.177,VALID,0,VALID,100,VALID,-0.0509425,VALID,18.771,VALID,148,VALID,0,
2008-09-17, 02:05:00,VALID,918.174,VALID,0,VALID,100,VALID,-0.0339617,VALID,18.7777,VALID,147,VALID,0,
2008-09-17, 02:06:00,VALID,918.174,VALID,0,VALID,100,VALID,0.0169808,VALID,18.784,VALID,144,VALID,0,
2008-09-17, 02:07:00,VALID,918.177,VALID,0,VALID,100,VALID,0,VALID,18.7743,VALID,140,VALID,0.457118,
2008-09-17, 02:08:00,VALID,918.165,VALID,0,VALID,100,VALID,-0.0169808,VALID,18.7615,VALID,142,VALID,1.25521,
2008-09-17, 02:09:00,VALID,918.143,VALID,0,VALID,100,VALID,0,VALID,18.7455,VALID,138,VALID,1.08689,
2008-09-17, 02:10:00,VALID,918.132,VALID,0,VALID,100,VALID,-0.0169808,VALID,18.7291,VALID,146,VALID,1.32679,
2008-09-17, 02:11:00,VALID,918.133,VALID,0,VALID,100,VALID,-0.0169808,VALID,18.7358,VALID,146,VALID,0.609581,
2008-09-17, 02:12:00,VALID,918.12,VALID,0,VALID,100,VALID,-0.0339617,VALID,18.7224,VALID,152,VALID,0.907703,
2008-09-17, 02:13:00,VALID,918.12,VALID,0,VALID,100,VALID,0,VALID,18.7152,VALID,146,VALID,0.32641,
2008-09-17, 02:14:00,VALID,918.124,VALID,0,VALID,100,VALID,0,VALID,18.7096,VALID,142,VALID,1.24655,
2008-09-17, 02:15:00,VALID,918.123,VALID,0,VALID,100,VALID,-0.0509425,VALID,18.7031,VALID,141,VALID,1.01722,
2008-09-17, 02:16:00,VALID,918.132,VALID,0,VALID,100,VALID,-0.0339617,VALID,18.7096,VALID,145,VALID,1.09133,
2008-09-17, 02:17:00,VALID,918.13,VALID,0,VALID,100,VALID,0.0169808,VALID,18.6962,VALID,140,VALID,1.29251,
2008-09-17, 02:18:00,VALID,918.131,VALID,0,VALID,100,VALID,0,VALID,18.7059,VALID,141,VALID,1.15859,
2008-09-17, 02:19:00,VALID,918.145,VALID,0,VALID,100,VALID,-0.0169808,VALID,18.6962,VALID,143,VALID,1.08668,
2008-09-17, 02:20:00,VALID,918.139,VALID,0,VALID,100,VALID,-0.0169808,VALID,18.6959,VALID,136,VALID,0.840255,
2008-09-17, 02:21:00,VALID,918.14,VALID,0,VALID,100,VALID,-0.0169808,VALID,18.7096,VALID,135,VALID,0.535689,
2008-09-17, 02:22:00,VALID,918.153,VALID,0,VALID,100,VALID,-0.0339617,VALID,18.7059,VALID,136,VALID,0.68679,
2008-09-17, 02:23:00,VALID,918.16,VALID,0,VALID,100,VALID,0,VALID,18.7059,VALID,133,VALID,0.66276,
2008-09-17, 02:24:00,VALID,918.151,VALID,0,VALID,100,VALID,0,VALID,18.7096,VALID,131,VALID,0.0552885,
2008-09-17, 02:25:00,VALID,918.166,VALID,0,VALID,100,VALID,0,VALID,18.7024,VALID,129,VALID,0.380996,
2008-09-17, 02:26:00,VALID,918.163,VALID,0,VALID,100,VALID,0,VALID,18.7258,VALID,129,VALID,0.749442,
2008-09-17, 02:27:00,VALID,918.151,VALID,0,VALID,100,VALID,0,VALID,18.7321,VALID,137,VALID,0.909255,
2008-09-17, 02:28:00,VALID,918.155,VALID,0,VALID,100,VALID,-0.0339617,VALID,18.7416,VALID,138,VALID,0.961682,
2008-09-17, 02:29:00,VALID,918.135,VALID,0,VALID,100,VALID,-0.0169808,VALID,18.7441,VALID,138,VALID,0.859561,
2008-09-17, 02:30:00,VALID,918.133,VALID,0,VALID,100,VALID,0,VALID,18.7546,VALID,138,VALID,0.421697,
2008-09-17, 02:31:00,VALID,918.127,VALID,0,VALID,100,VALID,-0.0169808,VALID,18.7548,VALID,138,VALID,0,
2008-09-17, 02:32:00,VALID,918.114,VALID,0,VALID,100,VALID,-0.0169808,VALID,18.7444,VALID,138,VALID,0.000186012,
2008-09-17, 02:33:00,VALID,918.109,VALID,0,VALID,100,VALID,-0.0169808,VALID,18.7645,VALID,138,VALID,0.183949,
2008-09-17, 02:34:00,VALID,918.089,VALID,0,VALID,100,VALID,0,VALID,18.7733,VALID,138,VALID,0.138263,
2008-09-17, 02:35:00,VALID,918.074,VALID,0,VALID,100,VALID,-0.0339617,VALID,18.764,VALID,141,VALID,0.365104,
2008-09-17, 02:36:00,VALID,918.076,VALID,0,VALID,100,VALID,0,VALID,18.7508,VALID,145,VALID,0.255859,
2008-09-17, 02:37:00,VALID,918.065,VALID,0,VALID,100,VALID,-0.0169808,VALID,18.7481,VALID,146,VALID,0,
2008-09-17, 02:38:00,VALID,918.077,VALID,0,VALID,100,VALID,-0.0169808,VALID,18.7453,VALID,146,VALID,0,
2008-09-17, 02:39:00,VALID,918.085,VALID,0,VALID,100,VALID,-0.0509425,VALID,18.7388,VALID,146,VALID,0,
2008-09-17, 02:40:00,VALID,918.095,VALID,0,VALID,100,VALID,0,VALID,18.7321,VALID,146,VALID,0,
2008-09-17, 02:41:00,VALID,918.107,VALID,0,VALID,100,VALID,-0.0509425,VALID,18.7161,VALID,146,VALID,0,
2008-09-17, 02:42:00,VALID,918.105,VALID,0,VALID,100,VALID,-0.0509425,VALID,18.6869,VALID,137,VALID,0.289773,
2008-09-17, 02:43:00,VALID,918.105,VALID,0,VALID,100,VALID,-0.0509425,VALID,18.6473,VALID,134,VALID,0.220084,
2008-09-17, 02:44:00,VALID,918.096,VALID,0,VALID,100,VALID,-0.0169808,VALID,18.6315,VALID,134,VALID,0,
2008-09-17, 02:45:00,VALID,918.09,VALID,0,VALID,100,VALID,-0.0509425,VALID,18.6253,VALID,134,VALID,0,
2008-09-17, 02:46:00,VALID,918.091,VALID,0,VALID,100,VALID,-0.0169808,VALID,18.6151,VALID,134,VALID,0,
2008-09-17, 02:47:00,VALID,918.079,VALID,0,VALID,100,VALID,0,VALID,18.6021,VALID,134,VALID,0,
2008-09-17, 02:48:00,VALID,918.07,VALID,0,VALID,100,VALID,-0.0339617,VALID,18.5725,VALID,134,VALID,0.807986,
2008-09-17, 02:49:00,VALID,918.068,VALID,0,VALID,100,VALID,-0.0169808,VALID,18.5827,VALID,139,VALID,0.290625,
2008-09-17, 02:50:00,VALID,918.078,VALID,0,VALID,100,VALID,-0.0169808,VALID,18.5926,VALID,139,VALID,0.0695685,
2008-09-17, 02:51:00,VALID,918.068,VALID,0,VALID,100,VALID,-0.0169808,VALID,18.5991,VALID,139,VALID,0.238917,
2008-09-17, 02:52:00,VALID,918.063,VALID,0,VALID,100,VALID,0,VALID,18.5986,VALID,139,VALID,0,
2008-09-17, 02:53:00,VALID,918.079,VALID,0,VALID,100,VALID,0,VALID,18.6251,VALID,146,VALID,0.664063,
2008-09-17, 02:54:00,VALID,918.073,VALID,0,VALID,100,VALID,-0.0169808,VALID,18.6216,VALID,150,VALID,0.768973,
2008-09-17, 02:55:00,VALID,918.068,VALID,0,VALID,100,VALID,-0.0339617,VALID,18.6415,VALID,152,VALID,0.576527,
2008-09-17, 02:56:00,VALID,918.075,VALID,0,VALID,100,VALID,-0.0169808,VALID,18.641,VALID,152,VALID,0.00870028,
2008-09-17, 02:57:00,VALID,918.07,VALID,0,VALID,100,VALID,-0.0339617,VALID,18.6478,VALID,154,VALID,0,
2008-09-17, 02:58:00,VALID,918.074,VALID,0,VALID,100,VALID,-0.0169808,VALID,18.6575,VALID,158,VALID,0.418241,
2008-09-17, 02:59:00,VALID,918.084,VALID,0,VALID,100,VALID,-0.0339617,VALID,18.6642,VALID,161,VALID,0,
2008-09-17, 03:00:00,VALID,918.1,VALID,0,VALID,100,VALID,-0.0169808,VALID,18.6767,VALID,138,VALID,0,
2008-09-17, 03:01:00,VALID,918.096,VALID,0,VALID,100,VALID,0,VALID,18.6406,VALID,133,VALID,0,
2008-09-17, 03:02:00,VALID,918.097,VALID,0,VALID,100,VALID,-0.0679233,VALID,18.6183,VALID,132,VALID,0,
2008-09-17, 03:03:00,VALID,918.1,VALID,0,VALID,100,VALID,-0.0509425,VALID,18.5889,VALID,133,VALID,0,
2008-09-17, 03:04:00,VALID,918.098,VALID,0,VALID,100,VALID,-0.0509425,VALID,18.5669,VALID,133,VALID,0,
2008-09-17, 03:05:00,VALID,918.105,VALID,0,VALID,100,VALID,-0.101885,VALID,18.5709,VALID,125,VALID,0,
2008-09-17, 03:06:00,VALID,918.104,VALID,0,VALID,100,VALID,-0.101885,VALID,18.5609,VALID,114,VALID,0,
2008-09-17, 03:07:00,VALID,918.085,VALID,0,VALID,100,VALID,-0.0679233,VALID,18.5417,VALID,113,VALID,0,
2008-09-17, 03:08:00,VALID,918.069,VALID,0,VALID,100,VALID,-0.0679233,VALID,18.522,VALID,119,VALID,0,
2008-09-17, 03:09:00,VALID,918.058,VALID,0,VALID,100,VALID,-0.0679233,VALID,18.5085,VALID,118,VALID,0,
2008-09-17, 03:10:00,VALID,918.058,VALID,0,VALID,100,VALID,-0.0849042,VALID,18.5088,VALID,121,VALID,0,
2008-09-17, 03:11:00,VALID,918.054,VALID,0,VALID,100,VALID,-0.0849042,VALID,18.512,VALID,125,VALID,0,
2008-09-17, 03:12:00,VALID,918.049,VALID,0,VALID,100,VALID,-0.0679233,VALID,18.5055,VALID,131,VALID,0,
2008-09-17, 03:13:00,VALID,918.044,VALID,0,VALID,100,VALID,-0.0169808,VALID,18.4891,VALID,131,VALID,0,
2008-09-17, 03:14:00,VALID,918.04,VALID,0,VALID,100,VALID,-0.0339617,VALID,18.4953,VALID,140,VALID,0,
2008-09-17, 03:15:00,VALID,918.042,VALID,0,VALID,100,VALID,-0.0849042,VALID,18.4956,VALID,141,VALID,0,
2008-09-17, 03:16:00,VALID,918.048,VALID,0,VALID,100,VALID,-0.0679233,VALID,18.4956,VALID,142,VALID,0,
2008-09-17, 03:17:00,VALID,918.05,VALID,0,VALID,100,VALID,-0.0169808,VALID,18.4958,VALID,141,VALID,0,
2008-09-17, 03:18:00,VALID,918.045,VALID,0,VALID,100,VALID,-0.0169808,VALID,18.4893,VALID,145,VALID,0,
2008-09-17, 03:19:00,VALID,918.041,VALID,0,VALID,100,VALID,-0.0849042,VALID,18.4724,VALID,151,VALID,0,
2008-09-17, 03:20:00,VALID,918.02,VALID,0,VALID,100,VALID,0,VALID,18.4893,VALID,151,VALID,0.955487,
2008-09-17, 03:21:00,VALID,918.023,VALID,0,VALID,100,VALID,-0.0169808,VALID,18.499,VALID,149,VALID,1.12464,
2008-09-17, 03:22:00,VALID,918.007,VALID,0,VALID,100,VALID,-0.0339617,VALID,18.4925,VALID,137,VALID,0.915206,
2008-09-17, 03:23:00,VALID,917.986,VALID,0,VALID,100,VALID,-0.101885,VALID,18.4925,VALID,131,VALID,0.80593,
2008-09-17, 03:24:00,VALID,917.972,VALID,0,VALID,100,VALID,-0.0509425,VALID,18.4828,VALID,129,VALID,1.00692,
2008-09-17, 03:25:00,VALID,917.958,VALID,0,VALID,100,VALID,-0.0339617,VALID,18.4796,VALID,139,VALID,1.06094,
2008-09-17, 03:26:00,VALID,917.953,VALID,0,VALID,100,VALID,-0.0169808,VALID,18.4694,VALID,135,VALID,1.1503,
2008-09-17, 03:27:00,VALID,917.952,VALID,0,VALID,100,VALID,-0.0169808,VALID,18.4826,VALID,137,VALID,0.906822,
2008-09-17, 03:28:00,VALID,917.963,VALID,0,VALID,100,VALID,-0.0849042,VALID,18.4861,VALID,142,VALID,0.853906,
2008-09-17, 03:29:00,VALID,917.958,VALID,0,VALID,100,VALID,-0.0169808,VALID,18.4858,VALID,137,VALID,0.785823,
2008-09-17, 03:30:00,VALID,917.962,VALID,0,VALID,100,VALID,-0.0679233,VALID,18.4925,VALID,139,VALID,0.414453,
2008-09-17, 03:31:00,VALID,917.963,VALID,0,VALID,100,VALID,-0.0509425,VALID,18.4861,VALID,144,VALID,0.169792,
2008-09-17, 03:32:00,VALID,917.968,VALID,0,VALID,100,VALID,-0.0679233,VALID,18.4696,VALID,141,VALID,0.604226,
2008-09-17, 03:33:00,VALID,917.978,VALID,0,VALID,100,VALID,0,VALID,18.4664,VALID,136,VALID,0.92016,
2008-09-17, 03:34:00,VALID,917.977,VALID,0,VALID,100,VALID,-0.0679233,VALID,18.4603,VALID,143,VALID,1.24143,
2008-09-17, 03:35:00,VALID,917.988,VALID,0,VALID,100,VALID,-0.0169808,VALID,18.4759,VALID,146,VALID,1.07102,
2008-09-17, 03:36:00,VALID,917.969,VALID,0,VALID,100,VALID,-0.0339617,VALID,18.4823,VALID,143,VALID,0.938542,
2008-09-17, 03:37:00,VALID,917.946,VALID,0,VALID,100,VALID,-0.0679233,VALID,18.4826,VALID,134,VALID,1.46931,
2008-09-17, 03:38:00,VALID,917.935,VALID,0,VALID,100,VALID,-0.0509425,VALID,18.4763,VALID,134,VALID,1.32106,
2008-09-17, 03:39:00,VALID,917.95,VALID,0,VALID,100,VALID,-0.0509425,VALID,18.4629,VALID,135,VALID,1.13377,
2008-09-17, 03:40:00,VALID,917.948,VALID,0,VALID,100,VALID,-0.0849042,VALID,18.4631,VALID,142,VALID,0.99891,
2008-09-17, 03:41:00,VALID,917.953,VALID,0,VALID,100,VALID,0.0169808,VALID,18.4666,VALID,137,VALID,1.10603,
2008-09-17, 03:42:00,VALID,917.959,VALID,0,VALID,100,VALID,-0.101885,VALID,18.4529,VALID,126,VALID,0.823686,
2008-09-17, 03:43:00,VALID,917.968,VALID,0,VALID,100,VALID,-0.0169808,VALID,18.4367,VALID,124,VALID,0.407393,